This demonstration page uses our WeatherBlox Daily Observations layout. Learn more.

Left ArrowRight Arrow

44.31136, -96.79839

Hourly Observations for August 12, 2018

Temp ( °F °C ) Dew Point ( °F °C ) Humidity (%) Winds ( mph kmh ) Pressure ( in mb ) Visibility ( mi km ) Precip ( " mm )
12:56 am 00:56 Clear 71 21.7 68 20 90 90 SE 10 17 30.07 1018 9 14 0.00 0.00
1:56 am 01:56 Clear 70 21.1 67 19.4 90 90 SSE 13 20 30.06 1018 9 14 0.00 0.00
2:56 am 02:56 Clear 70 21.1 67 19.4 90 90 SSE 10 17 30.06 1018 9 14 0.00 0.00
3:56 am 03:56 Clear 69 20.6 66 18.9 90 90 SSE 12 19 30.07 1018 9 14 0.00 0.00
4:56 am 04:56 Clear 69 20.6 66 18.9 90 90 SSE 13 20 30.07 1018 10 16 0.00 0.00
5:56 am 05:56 Clear 69 20.6 65 18.3 87 87 SSE 10 17 30.07 1018 10 16 0.00 0.00
6:56 am 06:56 Sunny 68 20 65 18.3 90 90 SSE 13 20 30.09 1019 10 16 0.00 0.00
7:56 am 07:56 Sunny 69 20.6 65 18.3 87 87 SSE 12 19 30.09 1019 10 16 0.00 0.00
8:56 am 08:56 Sunny 70 21.1 66 18.9 87 87 S 10 17 30.10 1019 10 16 0.00 0.00
9:56 am 09:56 Sunny 73 22.8 67 19.4 81 81 S 9 15 30.11 1020 10 16 0.00 0.00
10:56 am 10:56 Sunny 76 24.4 68 20 77 77 S 15 24 30.10 1019 10 16 0.00 0.00
11:56 am 11:56 Sunny 79 26.1 69 20.6 72 72 S 12 19 30.10 1019 10 16 0.00 0.00
12:56 pm 12:56 Sunny 81 27.2 71 21.7 72 72 S 12 19 30.09 1019 10 16 0.00 0.00
1:56 pm 13:56 Sunny 82 27.8 71 21.7 69 69 S 13 20 30.08 1019 10 16 0.00 0.00
3:56 pm 15:56 Sunny 85 29.4 73 22.8 68 68 S 13 20 30.05 1018 10 16 0.00 0.00
4:56 pm 16:56 Sunny 84 28.9 73 22.8 70 70 S 14 22 30.04 1017 10 16 0.00 0.00
5:56 pm 17:56 Sunny 83 28.3 72 22.2 70 70 S 10 17 30.04 1017 10 16 0.00 0.00
6:56 pm 18:56 Sunny 82 27.8 71 21.7 69 69 S 12 19 30.04 1017 10 16 0.00 0.00
7:56 pm 19:56 Sunny 79 26.1 71 21.7 77 77 S 8 13 30.04 1017 10 16 0.00 0.00
8:56 pm 20:56 Clear 77 25 70 21.1 79 79 SSE 10 17 30.04 1017 10 16 0.00 0.00
9:56 pm 21:56 Clear 74 23.3 69 20.6 85 85 SSE 12 19 30.04 1017 10 16 0.00 0.00
10:56 pm 22:56 Clear 73 22.8 68 20 84 84 SSE 12 19 30.05 1018 10 16 0.00 0.00
11:56 pm 23:56 Clear 71 21.7 67 19.4 87 87 SSE 8 13 30.05 1018 10 16 0.00 0.00

Powered by AerisWeather